(94095) = 1995 QM15 = 2000 YG67

Discovered at Socorro on 2000-12-28 by LINEAR.

Orbit

Orbit type: Main Belt

Note: WebGL enabled browser required.

epoch2024-03-31.0
epoch JD2460400.5
perihelion date2023-05-08.46123
perihelion JD2460072.96123
argument of perihelion (°)280.78321
ascending node (°)192.72057
inclination (°)9.24196
eccentricity0.1657806
perihelion distance (AU)2.2508011
Tisserand w.r.t. Jupiter3.3
ΔV w.r.t. Earth (km/sec)9.8
semimajor axis (AU)2.6980926
mean anomaly (°)72.84190
mean daily motion (°/day)0.22239170
aphelion distance (AU)3.145
period (years)4.43
P-vector [x]-0.39600173
P-vector [y]0.89270612
P-vector [z]0.21507769
Q-vector [x]-0.91756852
Q-vector [y]-0.37567952
Q-vector [z]-0.13012652
absolute magnitude15.79
phase slope0.15
uncertainty0
referenceMPEC 2024-D06
observations used932
oppositions19
arc length (days)10404
first opposition used1995
last opposition used2024
residual rms (arc-secs)0.62
perturbers coarse indicatorM-v
perturbers precise indicator003Ek
first observation date used1995-08-22.0
last observation date used2024-02-15.0
computer nameMPCLINUX
JD of orbit computation2456671.005464
perihelion JD uncertainty (days)9.5796E-05
argument of perihelion uncertainty (°)3.9273E-05
ascending node uncertainty (°)3.2681E-05
inclination uncertainty (°)6.3638E-06
eccentricity uncertainty 4.5357E-08
perihelion distance uncertainty (AU)1.2609E-07
Minimum Orbit Intersection Distances (in AU)
for orbit epoch: 2460400.5, reference: E2024-GD4
Mercury1.94239
Venus1.55172
Earth1.2892
Mars0.69874
Jupiter2.04111
Saturn6.6812
Uranus15.956
Neptune27.0233

Observations

951 total observations over interval: 1995 08 22.39294 – 2024 02 15.649699
These data are available for download (format description).

Date (UT) J2000 RA J2000 Dec Magn Location Ref
1995 08 22.39294 01 11 14.07 +09 52 19.4 20.5 V 691 – Steward Observatory, Kitt Peak-Spacewatch MPS 32120
1995 08 22.41463 01 11 13.99 +09 52 16.4 20.5 V 691 – Steward Observatory, Kitt Peak-Spacewatch MPS 32120
1995 08 22.43593 01 11 13.92 +09 52 13.2 21.0 V 691 – Steward Observatory, Kitt Peak-Spacewatch MPS 32120
1995 08 28.39386 01 10 35.81 +09 34 45.0 20.7 V 691 – Steward Observatory, Kitt Peak-Spacewatch MPS 32120
1995 08 28.43640 01 10 35.30 +09 34 36.4   691 – Steward Observatory, Kitt Peak-Spacewatch MPS 32120
1997 03 08.26281 10 20 33.37 +01 16 54.8 19.1 V 691 – Steward Observatory, Kitt Peak-Spacewatch MPS 32347
1997 03 08.28373 10 20 32.47 +01 17 06.0 19.0 V 691 – Steward Observatory, Kitt Peak-Spacewatch MPS 32347
1997 03 08.30471 10 20 31.55 +01 17 18.0 19.0 V 691 – Steward Observatory, Kitt Peak-Spacewatch MPS 32347
1997 03 16.17078 10 15 36.31 +02 30 21.2 20.0 V 691 – Steward Observatory, Kitt Peak-Spacewatch MPS 79837
1997 03 16.19491 10 15 35.46 +02 30 34.4 20.0 V 691 – Steward Observatory, Kitt Peak-Spacewatch MPS 79837
1997 03 16.21613 10 15 34.73 +02 30 46.1 19.9 V 691 – Steward Observatory, Kitt Peak-Spacewatch MPS 79837
2000 12 28.23474 05 46 30.52 +07 43 49.5 18.2   704 – Lincoln Laboratory ETS, New Mexico MPS 24227
2000 12 28.25013 05 46 29.76 +07 43 51.0 18.5   704 – Lincoln Laboratory ETS, New Mexico MPS 24227
2000 12 28.28091 05 46 27.96 +07 43 50.0 18.2   704 – Lincoln Laboratory ETS, New Mexico MPS 24227
2000 12 28.29688 05 46 27.07 +07 43 49.7 18.4   704 – Lincoln Laboratory ETS, New Mexico MPS 24227
2001 01 03.22048 05 41 27.06 +07 46 56.1 18.3   704 – Lincoln Laboratory ETS, New Mexico MPS 24227
2001 01 03.23561 05 41 26.34 +07 46 57.7 18.7   704 – Lincoln Laboratory ETS, New Mexico MPS 24227
2001 01 03.25074 05 41 25.59 +07 46 58.2 19.0   704 – Lincoln Laboratory ETS, New Mexico MPS 24227
2001 01 03.26588 05 41 24.76 +07 46 58.3 19.3   704 – Lincoln Laboratory ETS, New Mexico MPS 24227
2001 01 03.28104 05 41 24.03 +07 47 00.7 19.0   704 – Lincoln Laboratory ETS, New Mexico MPS 24227
2001 01 04.23578 05 40 39.04 +07 48 07.1 18.8   704 – Lincoln Laboratory ETS, New Mexico MPS 25436
2001 01 04.23765 05 40 38.93 +07 48 07.4 19.0   704 – Lincoln Laboratory ETS, New Mexico MPS 25436
2001 01 04.25262 05 40 38.18 +07 48 09.2 18.8   704 – Lincoln Laboratory ETS, New Mexico MPS 25436
2001 01 04.25280 05 40 38.13 +07 48 09.2 19.2   704 – Lincoln Laboratory ETS, New Mexico MPS 25436
2001 01 04.26796 05 40 37.45 +07 48 10.2 19.3   704 – Lincoln Laboratory ETS, New Mexico MPS 25436
2001 01 04.27358 05 40 37.07 +07 48 10.2 18.9   704 – Lincoln Laboratory ETS, New Mexico MPS 25436
2001 01 04.28380 05 40 36.66 +07 48 12.0 18.8   704 – Lincoln Laboratory ETS, New Mexico MPS 25436
2001 01 04.28953 05 40 36.41 +07 48 12.0 18.7   704 – Lincoln Laboratory ETS, New Mexico MPS 25436
2001 01 21.16836 05 30 55.78 +08 32 43.2 19.3   704 – Lincoln Laboratory ETS, New Mexico MPS 25436
2001 01 21.18522 05 30 55.37 +08 32 46.1 19.4   704 – Lincoln Laboratory ETS, New Mexico MPS 25436
2001 01 21.22085 05 30 54.44 +08 32 55.1 19.2   704 – Lincoln Laboratory ETS, New Mexico MPS 25436
2001 01 21.23844 05 30 54.10 +08 32 59.6 19.3   704 – Lincoln Laboratory ETS, New Mexico MPS 25436
2002 05 10.28342 14 55 04.52 -08 35 17.7 19.5 R 699 – Lowell Observatory-LONEOS MPS 58864
2002 05 10.29296 14 55 04.10 -08 35 14.2   699 – Lowell Observatory-LONEOS MPS 58864
2002 05 10.30258 14 55 03.62 -08 35 11.2   699 – Lowell Observatory-LONEOS MPS 58864
2002 05 10.31212 14 55 03.00 -08 35 07.6   699 – Lowell Observatory-LONEOS MPS 58864
2003 06 05.39402 20 37 14.31 -06 35 39.0 21.5 V 691 – Steward Observatory, Kitt Peak-Spacewatch MPS 79837
2003 06 05.42068 20 37 14.07 -06 35 35.5 21.7 V 691 – Steward Observatory, Kitt Peak-Spacewatch MPS 79837
2003 06 05.44445 20 37 13.86 -06 35 31.7 21.5 V 691 – Steward Observatory, Kitt Peak-Spacewatch MPS 79837
2004 09 17.33129 02 11 01.54 +11 24 29.8 19.9   704 – Lincoln Laboratory ETS, New Mexico MPS 114219
2004 09 17.34305 02 11 01.31 +11 24 26.5 19.9   704 – Lincoln Laboratory ETS, New Mexico MPS 114219
2004 09 17.36654 02 11 00.87 +11 24 19.1 19.9   704 – Lincoln Laboratory ETS, New Mexico MPS 114219
2004 09 17.37827 02 11 00.62 +11 24 16.5 19.9   704 – Lincoln Laboratory ETS, New Mexico MPS 114219
2004 10 09.25073 01 59 56.52 +08 53 45.5 18.9   704 – Lincoln Laboratory ETS, New Mexico MPS 116493
2004 10 09.26168 01 59 56.02 +08 53 41.9 19.2   704 – Lincoln Laboratory ETS, New Mexico MPS 116493
2004 10 09.27261 01 59 55.50 +08 53 37.0 19.6   704 – Lincoln Laboratory ETS, New Mexico MPS 116493
2004 10 09.28356 01 59 55.04 +08 53 30.1 19.5   704 – Lincoln Laboratory ETS, New Mexico MPS 116493
2004 10 09.29451 01 59 54.61 +08 53 24.9 19.6   704 – Lincoln Laboratory ETS, New Mexico MPS 116493
2004 10 12.23969 01 57 44.98 +08 29 07.8 19.0 R 699 – Lowell Observatory-LONEOS MPS 116493
2004 10 12.27608 01 57 43.20 +08 28 49.3   699 – Lowell Observatory-LONEOS MPS 116493
2004 10 12.31223 01 57 41.51 +08 28 31.6   699 – Lowell Observatory-LONEOS MPS 116493
2004 10 12.34858 01 57 39.80 +08 28 12.3   699 – Lowell Observatory-LONEOS MPS 116493
2004 10 14.23649 01 56 13.57 +08 12 22.2 18.7   704 – Lincoln Laboratory ETS, New Mexico MPS 116493
2004 10 14.24586 01 56 13.03 +08 12 18.0 19.1   704 – Lincoln Laboratory ETS, New Mexico MPS 116493
2004 10 14.25525 01 56 12.59 +08 12 13.5 19.2   704 – Lincoln Laboratory ETS, New Mexico MPS 116493
2004 10 14.26466 01 56 12.16 +08 12 08.8 19.2   704 – Lincoln Laboratory ETS, New Mexico MPS 116493
2004 10 14.27406 01 56 11.63 +08 12 03.7 19.4   704 – Lincoln Laboratory ETS, New Mexico MPS 116493
2004 10 20.20168 01 51 29.00 +07 21 38.0 18.6   704 – Lincoln Laboratory ETS, New Mexico MPS 117522
2004 10 20.21108 01 51 28.53 +07 21 32.8 19.1   704 – Lincoln Laboratory ETS, New Mexico MPS 117522
2004 10 20.22049 01 51 28.07 +07 21 28.7 19.0   704 – Lincoln Laboratory ETS, New Mexico MPS 117522
2004 10 20.22989 01 51 27.60 +07 21 23.7 18.7   704 – Lincoln Laboratory ETS, New Mexico MPS 117522
2004 10 20.23930 01 51 27.11 +07 21 18.7 19.1   704 – Lincoln Laboratory ETS, New Mexico MPS 117522
2004 11 04.23753 01 39 33.73 +05 19 12.6 19.1 R 699 – Lowell Observatory-LONEOS MPS 119165
2004 11 04.25700 01 39 32.81 +05 19 02.4   699 – Lowell Observatory-LONEOS MPS 119165
2004 11 04.27646 01 39 31.84 +05 18 55.1   699 – Lowell Observatory-LONEOS MPS 119165
2004 11 04.29591 01 39 31.06 +05 18 45.5   699 – Lowell Observatory-LONEOS MPS 119165
2006 03 05.32450 11 53 40.56 -04 51 33.0 19.4 V 691 – Steward Observatory, Kitt Peak-Spacewatch MPS 166837
2006 03 05.34184 11 53 39.79 -04 51 24.4 19.3 V 691 – Steward Observatory, Kitt Peak-Spacewatch MPS 166837
2006 03 05.35915 11 53 39.03 -04 51 15.6 19.3 V 691 – Steward Observatory, Kitt Peak-Spacewatch MPS 166837
2006 03 09.31691 11 50 46.82 -04 17 15.6   691 – Steward Observatory, Kitt Peak-Spacewatch MPS 166837
2006 03 09.33417 11 50 46.01 -04 17 06.2   691 – Steward Observatory, Kitt Peak-Spacewatch MPS 166837
2006 03 09.37260 11 50 44.22 -04 16 45.8   691 – Steward Observatory, Kitt Peak-Spacewatch MPS 166837
2006 03 24.25473 11 39 30.58 -01 57 23.8 18.5 R 699 – Lowell Observatory-LONEOS MPS 168689
2006 03 24.27660 11 39 29.58 -01 57 10.9   699 – Lowell Observatory-LONEOS MPS 168689
2006 03 24.29852 11 39 28.61 -01 56 59.7   699 – Lowell Observatory-LONEOS MPS 168689
2006 03 24.32042 11 39 27.63 -01 56 45.8   699 – Lowell Observatory-LONEOS MPS 168689
2006 04 07.23671 11 30 39.74 +00 08 47.8 19.2   704 – Lincoln Laboratory ETS, New Mexico MPS 169042
2006 04 07.24732 11 30 39.33 +00 08 50.4 19.6   704 – Lincoln Laboratory ETS, New Mexico MPS 169042
2006 04 07.25005 11 30 39.34 +00 08 50.1 19.6 V 703 – Catalina Sky Survey MPS 169042
2006 04 07.25767 11 30 38.91 +00 08 54.4 19.1 V 703 – Catalina Sky Survey MPS 169042
2006 04 07.25845 11 30 38.96 +00 08 55.2 19.1   704 – Lincoln Laboratory ETS, New Mexico MPS 169042
2006 04 07.26532 11 30 38.77 +00 08 57.2 19.8 V 703 – Catalina Sky Survey MPS 169042
2006 04 07.27292 11 30 38.41 +00 09 01.0 20.1 V 703 – Catalina Sky Survey MPS 169042
2006 04 20.26969 11 25 53.25 +01 42 06.3 19.9 V 703 – Catalina Sky Survey MPS 169711
